Location: Eurasberg
(48.3353°N, 11.0839°E)
Time: 13:02:55
(UTC+00:00)

Timation 1 Rocket - Pass Details

Date: 24 April 2026
Orbit: 895 x 908 km, 70.0° (Epoch: 14 May)

Event Time Altitude Azimuth Distance (km) Brightness Sun altitude
Exits shadow 23:48:12 47° 272° (W) 1,184 4.8 -28.1°
Maximum altitude 23:49:14 53° 306° (NW) 1,110 4.8 -28.0°
Drops below altitude 10° 23:55:07 10° 23° (NNE) 2,603 7.7 -27.9°
Sets 23:57:42 0° 28° (NNE) 3,548 8.6 -27.8°
